MINOTAUR 4 R/B, 45877

Orbit data source: Space-Track

MINOTAUR 4 R/B, 45877 is space debris in LEO originally from a launch on Wed, 15 Jul 2020 UTC launched from the Wallops Island (WLPIS). Debris objects in space refer to the collection of defunct objects orbiting the Earth. Examples of debris include non-operational satellites, rocket bodies, and fragments generated from explosions, collisions, or faulty payload assembly.

Loading next visibility...
Identifier
45877, 2020-046E
Orbit
LEO
Country
Flag of USUS
Related business
Manufacturer
NGIS FSG
Mission
Spacecraft
Bus & Motor
ORION 38, Unknown motor
Mass
~500 kg wet, ~500 kg dry
Launch date (UTC)
2020-07-15 (5 years ago)
Launch vehicle
Unknown
Launch site
Wallops Island (WLPIS)
Object type
Payload
Rocket body
Debris
Shape & HBR
Cyl + 1 Nozzle, 0.7 m
Radar Cross Section
1.381 m², Large (>1 m²)

Expand to show TLE details & history
Last TLE update: 21 hours ago

TLE from 21 hours ago
0 MINOTAUR 4 R/B
1 45877U 20046E   25350.30054959  .00001801  00000-0  14092-3 0  9992
2 45877  53.9792 313.5046 0006450 199.6542 160.4211 15.06075614221354
Epoch: 2025-12-16T07:12Z
TLE epoch observation values (Epoch: 2025-12-16T07:12:47.484Z)
Latitude
-0.00003°
Longitude
120.11999°
Altitude
553.392 km
Speed
7.584 km/s
True Right ascension
20h 54m 01s
True Declination
0° 00' 00"
Sunlit
Object was in daylight at epoch
Visualization orbit readout
Latitude
Unknown
Longitude
Unknown
Altitude
Unknown
Speed
Unknown
Apparent Right ascension
Unknown
Apparent Declination
Unknown
Sunlit
N/A
Visualization observer readout
Local Sidereal Time
02:42:22
Azimuth
Unknown
Elevation
Unknown
Doppler factor
Unknown
Orbital elements
Apogee altitude
552.797 km
Perigee altitude
543.862 km
Semi-major axis
6,926.466 km
Eccentricity
0.00065
Inclination
53.9792°
RAAN
313.5046°
Arg. of periapsis
199.6542°
True anomaly
160.44585°
Mean anomaly
160.4211°
Eccentric anomaly
160.43348°
Mean motion
3.76509 °/min
Orbital period
95.62 mins
BSTAR
0.00014092
Loading maneuver chart data...
Computing Atmospheric mass density...

Documentation

Showing up to 5 results
|